map of INN home
INN - Airport
Location
City:  Innsbruck, Tirol (Tyrol), Austria
Name:Innsbruck Airport
Old (Alt.):Kranebitten Airport
ICAO:LOWI
IATA:INN

Details
Type:Airport (Flugplatz, Airfield)
Use:Public/Civil, International (customs port of entry)
Latitude:4715'37"N (47.260219)
Longitude:1120'38"E (11.343964)
Datum:WGS 1984
Elevation:1906 ft (581 m)
Variation:3.34E (WMM2015v2 magnetic declination)
0.15 annual change
Runways:1
Longest:6562 × 148 ft (2000 × 45 m), paved

Time
Time Zone:UTC+1 (DST+2)
Local Time:

Weather
METAR:LOWI 041350Z 27008KT 9999 FEW030 02/M04 Q1027 NOSIG
TAF:LOWI 041115Z 0412/0512 08006KT 9999 FEW010 SCT060 TX02/0414Z TNM06/0507Z PROB40 0419/0508 5000 BR BKN010

Related Locations
Nearby:
Farthest:CHT: 11990 mi / 19296 km
Waitangi [Tuuta], CIT, NZ

Find:

   beyond  
but within

Other Information
Maps:
NOTAMs:
Links:
Sources:

  
  • flag of Austria
  • flag of Tirol (Tyrol)
  

Sectional Chart

Flight Planning
at skyvector.com

Satellite Image

Google Maps Satellite view

 

Copyright © 2004-2019 Karl L. Swartz. All rights reserved.
The Great Circle Mapper name and logo are trademarks of the Great Circle Mapper.
All other trademarks mentioned herein belong to their respective owners.
Please see credits for attibutions and further copyright information.

  Follow gcmap on Facebook Follow gcmap on Twitter GCmap on LinkedIn

hCard Microformat

Geo Microformat